• In Czech Republic
  • List of Countries
  • For 7 days
  • Water Temperature
  • Satellite Maps
  • Weather Map
  • Weather Widgets
  • user-avatar
    Login

    Hourly Weather Siderno Marina

    Today, 22 November, Wednesday

    Time Temperature Precipitation Wind Pressure Humidity
    00:00 +13°C° 0 mm 2 mps 764 mmHg 78%
    01:00 +13°C° 0 mm 2 mps 764 mmHg 75%
    02:00 +13°C° 0 mm 2 mps 764 mmHg 77%
    03:00 +13°C° 0 mm 2 mps 764 mmHg 79%
    04:00 +13°C° 0 mm 2 mps 764 mmHg 80%
    05:00 +13°C° 0 mm 2 mps 764 mmHg 81%
    06:00 +13°C° 0 mm 2 mps 764 mmHg 82%
    07:00 +13°C° 0 mm 2 mps 764 mmHg 83%
    08:00 +15°C° 0 mm 1 mps 764 mmHg 76%
    09:00 +18°C° 0 mm 1 mps 764 mmHg 69%
    10:00 +19°C° 0 mm 1 mps 765 mmHg 62%
    11:00 +20°C° 0 mm 1 mps 765 mmHg 61%
    12:00 +20°C° 0 mm 1 mps 764 mmHg 60%
    13:00 +19°C° 0 mm 2 mps 764 mmHg 59%
    14:00 +19°C° 0 mm 2 mps 764 mmHg 63%
    15:00 +19°C° 0 mm 1 mps 764 mmHg 67%
    16:00 +18°C° 0 mm 1 mps 764 mmHg 71%
    17:00 +16°C° 0 mm 1 mps 764 mmHg 75%
    18:00 +15°C° 0 mm 1 mps 764 mmHg 80%
    19:00 +14°C° 0 mm 1 mps 764 mmHg 84%
    20:00 +14°C° 0 mm 1 mps 764 mmHg 85%
    21:00 +14°C° 0 mm 1 mps 764 mmHg 85%
    22:00 +14°C° 0 mm 1 mps 765 mmHg 86%
    23:00 +14°C° 0 mm 1 mps 764 mmHg 85%

    Tomorrow, 23 November, Thursday

    Time Temperature Precipitation Wind Pressure Humidity
    00:00 +14°C° 0 mm 1 mps 764 mmHg 84%
    01:00 +14°C° 0 mm 1 mps 764 mmHg 83%
    02:00 +14°C° 0 mm 1 mps 764 mmHg 82%
    03:00 +13°C° 0 mm 2 mps 764 mmHg 82%
    04:00 +13°C° 0 mm 2 mps 764 mmHg 81%
    05:00 +13°C° 0 mm 2 mps 764 mmHg 80%
    06:00 +13°C° 0 mm 2 mps 764 mmHg 78%
    07:00 +13°C° 0 mm 1 mps 764 mmHg 77%
    08:00 +15°C° 0 mm 1 mps 764 mmHg 68%
    09:00 +18°C° 0 mm 1 mps 764 mmHg 59%
    10:00 +20°C° 0 mm 1 mps 765 mmHg 51%
    11:00 +21°C° 0 mm 1 mps 764 mmHg 50%
    12:00 +20°C° 0 mm 2 mps 764 mmHg 49%
    13:00 +20°C° 0 mm 2 mps 764 mmHg 48%
    14:00 +19°C° 0 mm 2 mps 764 mmHg 53%
    15:00 +19°C° 0 mm 2 mps 764 mmHg 59%
    16:00 +18°C° 0 mm 2 mps 764 mmHg 65%
    17:00 +17°C° 0 mm 2 mps 764 mmHg 69%
    18:00 +16°C° 0 mm 2 mps 765 mmHg 73%
    19:00 +15°C° 0 mm 2 mps 765 mmHg 77%
    20:00 +14°C° 0 mm 2 mps 765 mmHg 75%
    21:00 +14°C° 0 mm 2 mps 765 mmHg 73%
    22:00 +14°C° 0 mm 2 mps 765 mmHg 72%
    23:00 +14°C° 0 mm 2 mps 765 mmHg 69%

    Day after tomorrow, 24 November, Friday

    Time Temperature Precipitation Wind Pressure Humidity
    00:00 +14°C° 0 mm 2 mps 765 mmHg 67%
    01:00 +14°C° 0 mm 2 mps 765 mmHg 65%
    02:00 +14°C° 0 mm 2 mps 765 mmHg 64%
    03:00 +14°C° 0 mm 2 mps 765 mmHg 63%
    04:00 +13°C° 0 mm 2 mps 765 mmHg 63%
    05:00 +13°C° 0 mm 2 mps 765 mmHg 63%
    06:00 +13°C° 0 mm 2 mps 765 mmHg 63%
    07:00 +13°C° 0 mm 2 mps 766 mmHg 64%
    08:00 +15°C° 0 mm 2 mps 766 mmHg 59%
    09:00 +17°C° 0 mm 2 mps 766 mmHg 55%
    10:00 +18°C° 0 mm 2 mps 766 mmHg 50%
    11:00 +19°C° 0 mm 2 mps 766 mmHg 49%
    12:00 +19°C° 0 mm 2 mps 766 mmHg 49%
    13:00 +20°C° 0 mm 2 mps 765 mmHg 48%
    14:00 +19°C° 0 mm 2 mps 765 mmHg 54%
    15:00 +18°C° 0 mm 2 mps 765 mmHg 61%
    16:00 +17°C° 0 mm 2 mps 765 mmHg 67%
    17:00 +16°C° 0 mm 1 mps 766 mmHg 71%
    18:00 +15°C° 0 mm 1 mps 766 mmHg 76%
    19:00 +14°C° 0 mm 1 mps 766 mmHg 80%
    20:00 +14°C° 0 mm 1 mps 766 mmHg 80%
    21:00 +14°C° 0 mm 1 mps 766 mmHg 80%
    22:00 +13°C° 0 mm 1 mps 766 mmHg 80%
    23:00 +13°C° 0 mm 1 mps 766 mmHg 77%

    25 November, Saturday

    Time Temperature Precipitation Wind Pressure Humidity
    00:00 +13°C° 0 mm 1 mps 766 mmHg 74%
    01:00 +13°C° 0 mm 1 mps 766 mmHg 72%
    02:00 +13°C° 0 mm 1 mps 766 mmHg 69%
    03:00 +13°C° 0 mm 1 mps 766 mmHg 65%
    04:00 +13°C° 0 mm 1 mps 765 mmHg 62%
    05:00 +13°C° 0 mm 1 mps 766 mmHg 60%
    06:00 +12°C° 0 mm 1 mps 766 mmHg 59%
    07:00 +12°C° 0 mm 1 mps 766 mmHg 57%
    08:00 +14°C° 0 mm 1 mps 766 mmHg 53%
    09:00 +16°C° 0 mm 1 mps 766 mmHg 49%
    10:00 +17°C° 0 mm 0 mps 766 mmHg 46%
    11:00 +20°C° 0 mm 1 mps 766 mmHg 46%
    12:00 +19°C° 0 mm 2 mps 765 mmHg 47%
    13:00 +20°C° 0 mm 2 mps 765 mmHg 47%
    14:00 +19°C° 0 mm 2 mps 765 mmHg 52%
    15:00 +18°C° 0 mm 2 mps 765 mmHg 58%
    16:00 +17°C° 0 mm 2 mps 765 mmHg 63%
    17:00 +16°C° 0 mm 2 mps 765 mmHg 65%
    18:00 +15°C° 0 mm 2 mps 765 mmHg 66%
    19:00 +13°C° 0 mm 3 mps 765 mmHg 68%
    20:00 +13°C° 0 mm 3 mps 765 mmHg 64%
    21:00 +13°C° 0 mm 3 mps 765 mmHg 61%
    22:00 +13°C° 0 mm 3 mps 765 mmHg 57%
    23:00 +13°C° 0 mm 3 mps 765 mmHg 55%

    26 November, Sunday

    Time Temperature Precipitation Wind Pressure Humidity
    00:00 +13°C° 0 mm 3 mps 765 mmHg 54%
    01:00 +13°C° 0 mm 3 mps 765 mmHg 52%
    02:00 +13°C° 0 mm 3 mps 765 mmHg 52%
    03:00 +13°C° 0 mm 3 mps 764 mmHg 53%
    04:00 +13°C° 0 mm 3 mps 764 mmHg 53%
    05:00 +13°C° 0 mm 3 mps 764 mmHg 57%
    06:00 +13°C° 0 mm 3 mps 764 mmHg 61%
    07:00 +13°C° 0 mm 3 mps 764 mmHg 64%
    08:00 +16°C° 0 mm 2 mps 764 mmHg 61%
    09:00 +17°C° 0 mm 2 mps 764 mmHg 58%
    10:00 +19°C° 0 mm 2 mps 764 mmHg 54%
    11:00 +20°C° 0 mm 2 mps 764 mmHg 53%
    12:00 +20°C° 0 mm 3 mps 763 mmHg 52%
    13:00 +21°C° 0 mm 3 mps 763 mmHg 51%
    14:00 +20°C° 0 mm 3 mps 763 mmHg 55%
    15:00 +19°C° 0 mm 3 mps 762 mmHg 60%
    16:00 +18°C° 0 mm 3 mps 762 mmHg 64%
    17:00 +17°C° 0 mm 3 mps 762 mmHg 64%
    18:00 +17°C° 0 mm 3 mps 762 mmHg 64%
    19:00 +16°C° 0 mm 3 mps 762 mmHg 65%
    20:00 +16°C° 0 mm 3 mps 762 mmHg 62%
    21:00 +16°C° 0 mm 3 mps 762 mmHg 59%
    22:00 +16°C° 0 mm 3 mps 762 mmHg 56%
    23:00 +16°C° 0.2 mm 3 mps 762 mmHg 64%

    27 November, Monday

    Time Temperature Precipitation Wind Pressure Humidity
    00:00 +16°C° 0.2 mm 3 mps 762 mmHg 73%
    01:00 +16°C° 0.2 mm 3 mps 762 mmHg 82%
    02:00 +15°C° 0.4 mm 4 mps 762 mmHg 84%
    03:00 +14°C° 0.4 mm 4 mps 761 mmHg 86%
    04:00 +14°C° 0.4 mm 4 mps 761 mmHg 88%
    05:00 +14°C° 0.2 mm 5 mps 761 mmHg 84%
    06:00 +13°C° 0.2 mm 6 mps 762 mmHg 80%
    07:00 +12°C° 0.2 mm 7 mps 762 mmHg 76%
    08:00 +12°C° 0.1 mm 7 mps 762 mmHg 73%
    09:00 +14°C° 0.1 mm 7 mps 763 mmHg 70%
    10:00 +14°C° 0.1 mm 7 mps 763 mmHg 67%
    11:00 +14°C° 0.1 mm 7 mps 763 mmHg 67%
    12:00 +15°C° 0.1 mm 6 mps 763 mmHg 67%
    13:00 +15°C° 0.1 mm 6 mps 763 mmHg 67%
    14:00 +14°C° 0.1 mm 6 mps 763 mmHg 68%
    15:00 +14°C° 0.1 mm 5 mps 763 mmHg 70%
    16:00 +14°C° 0.1 mm 5 mps 763 mmHg 71%
    17:00 +13°C° 0.1 mm 4 mps 763 mmHg 73%
    18:00 +13°C° 0.1 mm 4 mps 764 mmHg 75%
    19:00 +12°C° 0.1 mm 4 mps 764 mmHg 78%
    20:00 +12°C° 0.1 mm 3 mps 764 mmHg 78%
    21:00 +12°C° 0.1 mm 3 mps 765 mmHg 78%
    22:00 +11°C° 0.1 mm 3 mps 765 mmHg 78%
    23:00 +11°C° 0 mm 3 mps 765 mmHg 79%
    Show more